Location: Tabor
(49.4170°N, 14.6670°E)
Time: 18:23:40
(UTC+02:00)

ISS - Visible Passes

Search period start: 19 October 2020 00:00
Search period end: 28 October 2020 23:00
Orbit: 418 x 419 km, 51.6° (Epoch: 19 October)

Date Brightness Start Highest point End Pass type
(mag) Time Alt. Az. Time Alt. Az. Time Alt. Az.
21 Oct -0.7 06:53:10 10° SSE 06:54:53 13° SE 06:56:35 10° ESE visible
23 Oct -1.8 06:52:53 10° SSW 06:55:50 29° SE 06:58:47 10° E visible
24 Oct -1.3 06:05:44 10° S 06:08:15 20° SE 06:10:46 10° E visible
25 Oct -1.0 04:19:31 11° SSE 04:20:43 13° SE 04:22:22 10° ESE visible
25 Oct -3.2 05:53:38 10° SW 05:56:57 59° SSE 06:00:16 10° ENE visible
26 Oct -2.7 05:07:11 18° SSW 05:09:16 41° SSE 05:12:28 10° ENE visible
27 Oct -2.1 04:21:45 28° SE 04:21:45 28° SE 04:24:34 10° E visible
27 Oct -3.8 05:54:51 10° WSW 05:58:13 80° NNW 06:01:36 10° ENE visible
28 Oct -0.4 03:36:12 12° E 03:36:12 12° E 03:36:32 10° E visible
28 Oct -3.8 05:09:09 34° WSW 05:10:28 80° SSE 05:13:50 10° ENE visible
